Regional Weather Roundup
Issued by NWS Albany, NY

Home | Current Version | Previous Version | Text Only | Print | Product List | Glossary On
Versions: 1 2 3 4 5 6 7 8 9 10 11 12 13 14 15 16 17 18 19 20 21 22 23 24 25 26 27
000
ASUS41 KALY 282210
RWRALY

NEW YORK STATE HOURLY WEATHER ROUNDUP
NATIONAL WEATHER SERVICE ALBANY NY
600 PM EDT THU JUL 28 2016

NOTE: "FAIR" INDICATES FEW OR NO CLOUDS BELOW 12,000 FEET WITH NO
SIGNIFICANT WEATHER AND/OR NO OBSTRUCTIONS TO VISIBILITY.

NYZ032-033-038>043-046>054-057>066-NYZ062>081-082-084-282300-
EAST


CITY           SKY/WX    TMP DP  RH WIND       PRES   REMARKS
ALBANY         CLOUDY    83  66  56 S5        29.85R
GLENS FALLS    CLOUDY    77  68  73 S3        29.85F
POUGHKEEPSIE   PTSUNNY   93  58  30 CALM      29.82S HX  92
NEWBURGH       PTSUNNY   90  63  40 VRB5      29.87R HX  90
MONTGOMERY     CLOUDY    86  65  49 S8        29.84S
WHITE PLAINS   PTSUNNY   82  69  64 S8        29.88R
ISLIP          CLOUDY    81  75  82 S8        29.87R
NEW YORK CITY  CLOUDY    86  71  60 SW16      29.86R HX  91
CENTRAL PARK   PTSUNNY   83  69  62 VRB6      29.90R
$$

NYZ005>009-017-018-044>046-055-056-282300-
CENTRAL


CITY           SKY/WX    TMP DP  RH WIND       PRES   REMARKS
FULTON         PTSUNNY   82  64  54 NW6       29.88S
SYRACUSE       CLOUDY    80  62  54 N9        29.86S
ROME           CLOUDY    83  67  58 W9        29.87S
ELMIRA         CLOUDY    84  60  44 NE7       29.86F
BINGHAMTON     CLOUDY    80  63  55 NE9       29.90F
MONTICELLO     CLOUDY    81  66  61 S7        29.93S
$$

NYZ026>034-041>043-087-282300-
NORTH


CITY           SKY/WX    TMP DP  RH WIND       PRES   REMARKS
WATERTOWN      CLOUDY    80  62  54 N12       29.87S
FORT DRUM      NOT AVBL
MASSENA        MOSUNNY   81  61  50 NW5       29.89S
SARANAC LAKE   PTSUNNY   71  62  73 CALM      29.94S
PLATTSBURGH    CLOUDY    72  68  87 CALM      29.89S
$$

NYZ001>004-010>016-019>021-085-282300-
WEST


CITY           SKY/WX    TMP DP  RH WIND       PRES   REMARKS
NIAGARA FALLS  CLOUDY    83  59  44 NE8       29.87S
BUFFALO        CLOUDY    82  63  52 NE9       29.88R
DUNKIRK        CLOUDY    81  65  58 NE5       29.88S
JAMESTOWN      CLOUDY    79  61  53 N3        29.92S
WELLSVILLE     CLOUDY    79  60  52 VRB3      29.95F
ROCHESTER      CLOUDY    83  58  42 N9        29.88S
PENN YAN       CLOUDY    83  61  47 CALM      29.89F
$$

             KEY
       WCI = WIND CHILL INDEX
       VSB = VISIBILITY
       HX  = HEAT INDEX
$$




USA.gov is the U.S. government's official web portal to all federal, state and local government web resources and services.